| time (UTC) | temp F | wind direction | speed MPH | gust MPH | rain 1hr in | rain 24hr in | rain mn in | humidity % | barometer mb |
| 20260901122149 | 74 | 131 | 2.0 | 2.0 | 0.00 | 0.00 | 0.00 | 98 | 1019.8 |
| 20260901121643 | 74 | 74 | 0.0 | 1.0 | 0.00 | 0.00 | 0.00 | 98 | 1019.8 |
| 20260901121139 | 73 | 190 | 0.0 | 1.0 | 0.00 | 0.00 | 0.00 | 99 | 1019.8 |
| 20260901120638 | 73 | 156 | 0.0 | 1.0 | 0.00 | 0.00 | 0.00 | 99 | 1019.9 |
| 20260901120133 | 73 | 158 | 0.0 | 2.0 | 0.00 | 0.00 | 0.00 | 99 | 1019.8 |
| 20260901115629 | 72 | 147 | 0.0 | 0.0 | 0.00 | 0.00 | 0.00 | 99 | 1019.8 |
| 20260901115125 | 72 | 154 | 0.0 | 0.0 | 0.00 | 0.00 | 0.00 | 99 | 1019.9 |
| 20260901114622 | 72 | 150 | 0.0 | 1.0 | 0.00 | 0.00 | 0.00 | 99 | 1019.9 |
| 20260901114120 | 72 | 169 | 0.0 | 2.0 | 0.00 | 0.00 | 0.00 | 99 | 1019.9 |
| 20260901113619 | 72 | 154 | 0.0 | 1.0 | 0.00 | 0.00 | 0.00 | 99 | 1019.5 |
| 20260901113114 | 72 | 169 | 1.0 | 2.0 | 0.00 | 0.00 | 0.00 | 99 | 1019.4 |
| 20260901112609 | 72 | 162 | 2.0 | 2.0 | 0.00 | 0.00 | 0.00 | 99 | 1019.5 |
| 20260901112103 | 72 | 171 | 1.0 | 2.0 | 0.00 | 0.00 | 0.00 | 99 | 1019.4 |
| 20260901111603 | 72 | 154 | 0.0 | 1.0 | 0.00 | 0.00 | 0.00 | 99 | 1019.4 |
| 20260901111101 | 72 | 147 | 0.0 | 0.0 | 0.00 | 0.00 | 0.00 | 99 | 1019.3 |
| 20260901110557 | 72 | 154 | 0.0 | 2.0 | 0.00 | 0.00 | 0.00 | 99 | 1019.5 |
| 20260901110052 | 72 | 189 | 0.0 | 2.0 | 0.00 | 0.00 | 0.00 | 99 | 1019.4 |
| 20260901105549 | 71 | 172 | 0.0 | 1.0 | 0.00 | 0.00 | 0.00 | 98 | 1019.2 |
| 20260901105048 | 72 | 117 | 0.0 | 1.0 | 0.00 | 0.00 | 0.00 | 98 | 1019.2 |
| 20260901104544 | 72 | 114 | 0.0 | 1.0 | 0.00 | 0.00 | 0.00 | 98 | 1018.9 |
| 20260901104040 | 72 | 158 | 0.0 | 2.0 | 0.00 | 0.00 | 0.00 | 98 | 1019.1 |
| 20260901103534 | 72 | 143 | 0.0 | 1.0 | 0.00 | 0.00 | 0.00 | 98 | 1019.2 |
| 20260901103030 | 72 | 128 | 0.0 | 1.0 | 0.00 | 0.00 | 0.00 | 98 | 1019.2 |
| 20260901102529 | 72 | 180 | 0.0 | 0.0 | 0.00 | 0.00 | 0.00 | 98 | 1019.0 |
| 20260901102024 | 72 | 172 | 0.0 | 1.0 | 0.00 | 0.00 | 0.00 | 98 | 1019.1 |
| 20260901101520 | 72 | 172 | 0.0 | 0.0 | 0.00 | 0.00 | 0.00 | 98 | 1019.3 |
| 20260901101019 | 72 | 159 | 0.0 | 0.0 | 0.00 | 0.00 | 0.00 | 98 | 1019.3 |
| 20260901100514 | 72 | 170 | 0.0 | 1.0 | 0.00 | 0.00 | 0.00 | 98 | 1019.2 |
| 20260901100013 | 72 | 145 | 2.0 | 2.0 | 0.00 | 0.00 | 0.00 | 98 | 1019.3 |
| 20260901095512 | 72 | 134 | 1.0 | 2.0 | 0.00 | 0.00 | 0.00 | 98 | 1019.4 |
| 20260901095010 | 72 | 171 | 0.0 | 2.0 | 0.00 | 0.00 | 0.00 | 98 | 1019.3 |
| 20260901094505 | 72 | 200 | 0.0 | 1.0 | 0.00 | 0.00 | 0.00 | 98 | 1019.4 |
| 20260901094004 | 72 | 180 | 0.0 | 1.0 | 0.00 | 0.00 | 0.00 | 98 | 1019.2 |
| 20260901093458 | 72 | 119 | 0.0 | 1.0 | 0.00 | 0.00 | 0.00 | 98 | 1019.2 |
| 20260901092953 | 72 | 119 | 1.0 | 1.0 | 0.00 | 0.00 | 0.00 | 98 | 1019.1 |
| 20260901092449 | 72 | 145 | 0.0 | 2.0 | 0.00 | 0.00 | 0.00 | 98 | 1019.3 |
| 20260901091945 | 72 | 154 | 1.0 | 1.0 | 0.00 | 0.00 | 0.00 | 98 | 1019.3 |
| 20260901091440 | 72 | 133 | 2.0 | 2.0 | 0.00 | 0.00 | 0.00 | 98 | 1019.4 |
| 20260901090935 | 72 | 151 | 0.0 | 2.0 | 0.00 | 0.00 | 0.00 | 98 | 1019.2 |
| 20260901090435 | 72 | 169 | 1.0 | 2.0 | 0.00 | 0.00 | 0.00 | 98 | 1019.3 |
| 20260901085930 | 72 | 153 | 1.0 | 2.0 | 0.00 | 0.00 | 0.00 | 98 | 1019.3 |
| 20260901085426 | 72 | 154 | 0.0 | 0.0 | 0.00 | 0.00 | 0.00 | 98 | 1019.3 |
| 20260901084922 | 72 | 247 | 0.0 | 0.0 | 0.00 | 0.00 | 0.00 | 98 | 1019.1 |
| 20260901084418 | 72 | 187 | 1.0 | 2.0 | 0.00 | 0.00 | 0.00 | 98 | 1019.1 |
| 20260901083914 | 72 | 167 | 2.0 | 2.0 | 0.00 | 0.00 | 0.00 | 98 | 1019.2 |
| 20260901083414 | 72 | 148 | 0.0 | 1.0 | 0.00 | 0.00 | 0.00 | 98 | 1019.2 |
| 20260901082912 | 72 | 119 | 0.0 | 0.0 | 0.00 | 0.00 | 0.00 | 98 | 1019.3 |
| 20260901082407 | 72 | 172 | 0.0 | 0.0 | 0.00 | 0.00 | 0.00 | 98 | 1019.4 |
| 20260901081902 | 72 | 154 | 0.0 | 1.0 | 0.00 | 0.00 | 0.00 | 98 | 1019.2 |
| 20260901081357 | 72 | 159 | 1.0 | 2.0 | 0.00 | 0.00 | 0.00 | 98 | 1019.2 |
| 20260901080857 | 72 | 159 | 1.0 | 2.0 | 0.00 | 0.00 | 0.00 | 97 | 1019.0 |
| 20260901080352 | 72 | 164 | 1.0 | 1.0 | 0.00 | 0.00 | 0.00 | 97 | 1019.4 |
| 20260901075846 | 72 | 164 | 2.0 | 2.0 | 0.00 | 0.00 | 0.00 | 97 | 1019.3 |
| 20260901075341 | 72 | 165 | 1.0 | 2.0 | 0.00 | 0.00 | 0.00 | 97 | 1019.3 |
| 20260901074836 | 72 | 171 | 0.0 | 1.0 | 0.00 | 0.00 | 0.00 | 97 | 1019.2 |
| 20260901074331 | 72 | 167 | 1.0 | 2.0 | 0.00 | 0.00 | 0.00 | 97 | 1019.2 |
| 20260901073826 | 72 | 158 | 1.0 | 2.0 | 0.00 | 0.00 | 0.00 | 97 | 1019.1 |
| 20260901073322 | 72 | 161 | 0.0 | 2.0 | 0.00 | 0.00 | 0.00 | 97 | 1019.2 |
| 20260901072818 | 72 | 149 | 0.0 | 1.0 | 0.00 | 0.00 | 0.00 | 97 | 1019.0 |
| 20260901072317 | 72 | 172 | 0.0 | 0.0 | 0.00 | 0.00 | 0.00 | 97 | 1018.9 |
| 20260901071813 | 72 | 148 | 0.0 | 1.0 | 0.00 | 0.00 | 0.00 | 97 | 1019.2 |
| 20260901071311 | 72 | 163 | 0.0 | 1.0 | 0.00 | 0.00 | 0.00 | 97 | 1019.3 |
| 20260901070810 | 73 | 176 | 1.0 | 2.0 | 0.00 | 0.00 | 0.00 | 97 | 1019.5 |
| 20260901070306 | 73 | 163 | 1.0 | 2.0 | 0.00 | 0.00 | 0.00 | 97 | 1019.7 |
| 20260901065805 | 73 | 169 | 0.0 | 2.0 | 0.00 | 0.00 | 0.00 | 97 | 1019.6 |
| 20260901065300 | 73 | 154 | 0.0 | 0.0 | 0.00 | 0.00 | 0.00 | 97 | 1019.4 |
| 20260901064756 | 73 | 159 | 1.0 | 1.0 | 0.00 | 0.00 | 0.00 | 96 | 1019.5 |
| 20260901064252 | 73 | 173 | 0.0 | 1.0 | 0.00 | 0.00 | 0.00 | 96 | 1019.5 |
| 20260901063750 | 73 | 158 | 2.0 | 2.0 | 0.00 | 0.00 | 0.00 | 96 | 1019.7 |
| 20260901063245 | 73 | 156 | 1.0 | 2.0 | 0.00 | 0.00 | 0.00 | 96 | 1019.6 |
| 20260901062741 | 73 | 156 | 0.0 | 0.0 | 0.00 | 0.00 | 0.00 | 96 | 1019.9 |
| 20260901062237 | 73 | 186 | 0.0 | 1.0 | 0.00 | 0.00 | 0.00 | 96 | 1019.7 |
| 20260901061733 | 73 | 169 | 1.0 | 1.0 | 0.00 | 0.00 | 0.00 | 96 | 1019.9 |
| 20260901061232 | 73 | 148 | 1.0 | 1.0 | 0.00 | 0.00 | 0.00 | 96 | 1019.9 |
| 20260901060727 | 73 | 147 | 0.0 | 1.0 | 0.00 | 0.00 | 0.00 | 96 | 1019.7 |
| 20260901060223 | 73 | 149 | 0.0 | 1.0 | 0.00 | 0.00 | 0.00 | 95 | 1019.8 |
| 20260901055718 | 73 | 163 | 1.0 | 2.0 | 0.00 | 0.00 | 0.00 | 95 | 1019.9 |
| 20260901055215 | 73 | 150 | 1.0 | 2.0 | 0.00 | 0.00 | 0.00 | 95 | 1019.8 |
| 20260901054711 | 74 | 152 | 1.0 | 1.0 | 0.00 | 0.00 | 0.00 | 95 | 1020.0 |
| 20260901054208 | 74 | 141 | 1.0 | 2.0 | 0.00 | 0.00 | 0.00 | 95 | 1019.9 |
| 20260901053703 | 74 | 142 | 1.0 | 2.0 | 0.00 | 0.00 | 0.00 | 94 | 1020.1 |
| 20260901053159 | 74 | 151 | 1.0 | 1.0 | 0.00 | 0.00 | 0.00 | 94 | 1020.1 |
| 20260901052654 | 74 | 172 | 0.0 | 1.0 | 0.00 | 0.00 | 0.00 | 94 | 1020.1 |
| 20260901052149 | 74 | 172 | 0.0 | 1.0 | 0.00 | 0.00 | 0.00 | 94 | 1019.8 |
| 20260901051648 | 74 | 183 | 1.0 | 2.0 | 0.00 | 0.00 | 0.00 | 94 | 1020.0 |
| 20260901051148 | 74 | 177 | 1.0 | 2.0 | 0.00 | 0.00 | 0.00 | 93 | 1020.1 |
| 20260901050643 | 75 | 170 | 0.0 | 2.0 | 0.00 | 0.00 | 0.00 | 93 | 1020.4 |
| 20260901050138 | 75 | 165 | 1.0 | 1.0 | 0.00 | 0.00 | 0.00 | 93 | 1020.2 |
| 20260901045638 | 75 | 179 | 1.0 | 2.0 | 0.00 | 0.00 | 0.00 | 93 | 1020.2 |
| 20260901045133 | 75 | 155 | 1.0 | 2.0 | 0.00 | 0.00 | 0.00 | 92 | 1020.3 |
| 20260901044629 | 75 | 155 | 1.0 | 2.0 | 0.00 | 0.00 | 0.00 | 92 | 1020.5 |
| 20260901044125 | 75 | 164 | 0.0 | 0.0 | 0.00 | 0.00 | 0.00 | 91 | 1020.5 |
| 20260901043620 | 76 | 159 | 0.0 | 1.0 | 0.00 | 0.00 | 0.00 | 91 | 1020.4 |
| 20260901043116 | 76 | 159 | 0.0 | 1.0 | 0.00 | 0.00 | 0.00 | 91 | 1020.1 |
| 20260901042615 | 76 | 172 | 0.0 | 0.0 | 0.00 | 0.00 | 0.00 | 91 | 1020.4 |
| 20260901042110 | 76 | 172 | 0.0 | 1.0 | 0.00 | 0.00 | 0.00 | 91 | 1020.5 |
| 20260901041606 | 76 | 190 | 1.0 | 2.0 | 0.00 | 0.00 | 0.00 | 90 | 1020.2 |
| 20260901041101 | 76 | 165 | 1.0 | 2.0 | 0.00 | 0.00 | 0.00 | 89 | 1020.2 |
| 20260901040600 | 76 | 160 | 0.0 | 1.0 | 0.00 | 0.00 | 0.00 | 89 | 1020.0 |
| 20260901040055 | 76 | 159 | 0.0 | 1.0 | 0.00 | 0.00 | 0.00 | 89 | 1020.3 |
| 20260901035553 | 76 | 133 | 0.0 | 1.0 | 0.00 | 0.00 | 0.00 | 90 | 1020.1 |
| 20260901035052 | 76 | 184 | 0.0 | 1.0 | 0.00 | 0.00 | 0.00 | 91 | 1020.2 |
| 20260901034551 | 76 | 139 | 1.0 | 2.0 | 0.00 | 0.00 | 0.00 | 91 | 1020.2 |
| 20260901034051 | 77 | 150 | 0.0 | 2.0 | 0.00 | 0.00 | 0.00 | 91 | 1020.4 |
| 20260901033550 | 77 | 160 | 0.0 | 1.0 | 0.00 | 0.00 | 0.00 | 89 | 1020.2 |
| 20260901033045 | 77 | 148 | 1.0 | 2.0 | 0.00 | 0.00 | 0.00 | 88 | 1020.2 |
| 20260901032544 | 77 | 174 | 1.0 | 2.0 | 0.00 | 0.00 | 0.00 | 88 | 1020.2 |
| 20260901032039 | 78 | 160 | 1.0 | 1.0 | 0.00 | 0.00 | 0.00 | 88 | 1020.1 |
| 20260901031534 | 78 | 150 | 1.0 | 2.0 | 0.00 | 0.00 | 0.00 | 88 | 1020.0 |
| 20260901031030 | 78 | 147 | 1.0 | 2.0 | 0.00 | 0.00 | 0.00 | 87 | 1020.2 |
| 20260901030530 | 78 | 162 | 0.0 | 1.0 | 0.00 | 0.00 | 0.00 | 85 | 1019.8 |
| 20260901030025 | 78 | 154 | 0.0 | 2.0 | 0.00 | 0.00 | 0.00 | 84 | 1020.1 |
| 20260901025524 | 79 | 159 | 1.0 | 1.0 | 0.00 | 0.00 | 0.00 | 84 | 1020.2 |
| 20260901025019 | 79 | 168 | 2.0 | 2.0 | 0.00 | 0.00 | 0.00 | 84 | 1020.2 |
| 20260901024514 | 79 | 152 | 1.0 | 2.0 | 0.00 | 0.00 | 0.00 | 83 | 1020.2 |
| 20260901024012 | 79 | 169 | 1.0 | 1.0 | 0.00 | 0.00 | 0.00 | 83 | 1020.0 |
| 20260901023507 | 79 | 156 | 0.0 | 1.0 | 0.00 | 0.00 | 0.00 | 83 | 1020.0 |
| 20260901023002 | 80 | 169 | 1.0 | 2.0 | 0.00 | 0.00 | 0.00 | 82 | 1020.1 |
| 20260901022457 | 80 | 162 | 0.0 | 1.0 | 0.00 | 0.00 | 0.00 | 81 | 1020.0 |
| 20260901021952 | 81 | 172 | 0.0 | 2.0 | 0.00 | 0.00 | 0.00 | 79 | 1020.0 |
| 20260901021448 | 81 | 119 | 0.0 | 1.0 | 0.00 | 0.00 | 0.00 | 78 | 1020.0 |
| 20260901020943 | 81 | 159 | 0.0 | 0.0 | 0.00 | 0.00 | 0.00 | 77 | 1020.2 |
| 20260901020438 | 81 | 161 | 0.0 | 1.0 | 0.00 | 0.00 | 0.00 | 77 | 1020.3 |
| 20260901015936 | 81 | 137 | 0.0 | 1.0 | 0.00 | 0.00 | 0.00 | 77 | 1020.3 |
| 20260901015434 | 81 | 126 | 1.0 | 2.0 | 0.00 | 0.00 | 0.00 | 77 | 1020.0 |
| 20260901014932 | 81 | 129 | 1.0 | 2.0 | 0.00 | 0.00 | 0.00 | 77 | 1020.1 |
| 20260901014429 | 81 | 137 | 0.0 | 1.0 | 0.00 | 0.00 | 0.00 | 76 | 1020.0 |
| 20260901013925 | 82 | 99 | 0.0 | 2.0 | 0.00 | 0.00 | 0.00 | 77 | 1020.1 |
| 20260901013420 | 82 | 62 | 0.0 | 2.0 | 0.00 | 0.00 | 0.00 | 75 | 1019.9 |
| 20260901012916 | 82 | 157 | 0.0 | 1.0 | 0.00 | 0.00 | 0.00 | 74 | 1020.1 |
| 20260901012411 | 82 | 141 | 0.0 | 2.0 | 0.00 | 0.00 | 0.00 | 73 | 1020.0 |
| 20260901011906 | 82 | 160 | 0.0 | 2.0 | 0.00 | 0.00 | 0.00 | 75 | 1019.8 |
| 20260901011402 | 82 | 177 | 0.0 | 1.0 | 0.00 | 0.00 | 0.00 | 74 | 1019.8 |
| 20260901010900 | 82 | 194 | 0.0 | 2.0 | 0.00 | 0.00 | 0.00 | 75 | 1019.7 |
| 20260901010355 | 82 | 146 | 1.0 | 1.0 | 0.00 | 0.00 | 0.00 | 76 | 1019.9 |
| 20260901005853 | 82 | 201 | 0.0 | 1.0 | 0.00 | 0.00 | 0.00 | 78 | 1019.9 |
| 20260901005348 | 81 | 161 | 0.0 | 1.0 | 0.00 | 0.00 | 0.00 | 76 | 1019.5 |
| 20260901004839 | 81 | 150 | 1.0 | 2.0 | 0.00 | 0.00 | 0.00 | 79 | 1019.4 |
| 20260901004338 | 81 | 142 | 0.0 | 1.0 | 0.00 | 0.00 | 0.00 | 79 | 1019.8 |
| 20260901003832 | 81 | 154 | 0.0 | 1.0 | 0.00 | 0.00 | 0.00 | 77 | 1020.1 |
| 20260901003328 | 81 | 155 | 0.0 | 1.0 | 0.00 | 0.00 | 0.00 | 77 | 1020.1 |
| 20260901002826 | 82 | 158 | 1.0 | 2.0 | 0.00 | 0.00 | 0.00 | 80 | 1020.0 |
| 20260901002326 | 82 | 147 | 0.0 | 2.0 | 0.00 | 0.00 | 0.00 | 77 | 1019.9 |
| 20260901001826 | 82 | 196 | 0.0 | 2.0 | 0.00 | 0.00 | 0.00 | 77 | 1019.8 |
| 20260901001322 | 82 | 214 | 0.0 | 1.0 | 0.00 | 0.00 | 0.00 | 77 | 1019.8 |
| 20260901000817 | 83 | 189 | 1.0 | 1.0 | 0.00 | 0.00 | 0.00 | 76 | 1019.7 |
| 20260901000314 | 82 | 183 | 1.0 | 2.0 | 0.00 | 0.00 | 0.00 | 76 | 1019.8 |
| 20260831235810 | 82 | 180 | 2.0 | 3.0 | 0.00 | 0.00 | 0.00 | 78 | 1019.5 |
| 20260831235306 | 82 | 149 | 1.0 | 2.0 | 0.00 | 0.00 | 0.00 | 81 | 1019.5 |
| 20260831234801 | 82 | 119 | 0.0 | 2.0 | 0.00 | 0.00 | 0.00 | 78 | 1019.7 |
| 20260831234301 | 82 | 167 | 1.0 | 1.0 | 0.00 | 0.00 | 0.00 | 79 | 1019.4 |
| 20260831233756 | 83 | 171 | 0.0 | 0.0 | 0.00 | 0.00 | 0.00 | 78 | 1019.4 |
| 20260831233252 | 83 | 194 | 0.0 | 2.0 | 0.00 | 0.00 | 0.00 | 77 | 1019.8 |
| 20260831232746 | 83 | 216 | 0.0 | 2.0 | 0.00 | 0.00 | 0.00 | 77 | 1019.7 |
| 20260831232243 | 84 | 200 | 1.0 | 2.0 | 0.00 | 0.00 | 0.00 | 76 | 1019.6 |
| 20260831231739 | 84 | 206 | 0.0 | 1.0 | 0.00 | 0.00 | 0.00 | 76 | 1019.4 |
| 20260831231235 | 84 | 205 | 1.0 | 2.0 | 0.00 | 0.00 | 0.00 | 76 | 1019.5 |
| 20260831230730 | 84 | 226 | 0.0 | 1.0 | 0.00 | 0.00 | 0.00 | 76 | 1019.6 |
| 20260831230225 | 84 | 206 | 1.0 | 1.0 | 0.00 | 0.00 | 0.00 | 75 | 1019.4 |
| 20260831225724 | 85 | 188 | 0.0 | 1.0 | 0.00 | 0.00 | 0.00 | 73 | 1019.4 |
| 20260831225219 | 85 | 152 | 1.0 | 2.0 | 0.00 | 0.00 | 0.00 | 73 | 1019.5 |
| 20260831224709 | 86 | 241 | 0.0 | 2.0 | 0.00 | 0.00 | 0.00 | 70 | 1019.4 |
| 20260831224204 | 86 | 208 | 1.0 | 2.0 | 0.00 | 0.00 | 0.00 | 68 | 1019.3 |
| 20260831223659 | 87 | 225 | 0.0 | 1.0 | 0.00 | 0.00 | 0.00 | 67 | 1019.6 |
| 20260831223156 | 87 | 141 | 0.0 | 2.0 | 0.00 | 0.00 | 0.00 | 62 | 1019.6 |
| 20260831222651 | 87 | 149 | 0.0 | 1.0 | 0.00 | 0.00 | 0.00 | 65 | 1019.7 |
| 20260831222147 | 87 | 177 | 0.0 | 1.0 | 0.00 | 0.00 | 0.00 | 63 | 1019.6 |
| 20260831221642 | 88 | 171 | 0.0 | 0.0 | 0.00 | 0.00 | 0.00 | 63 | 1019.5 |
| 20260831221137 | 88 | 239 | 0.0 | 2.0 | 0.00 | 0.00 | 0.00 | 62 | 1019.7 |
| 20260831220632 | 89 | 156 | 1.0 | 1.0 | 0.00 | 0.00 | 0.00 | 60 | 1019.3 |
| 20260831220127 | 89 | 246 | 2.0 | 3.0 | 0.00 | 0.00 | 0.00 | 56 | 1019.6 |
| 20260831215623 | 90 | 291 | 2.0 | 2.0 | 0.00 | 0.00 | 0.00 | 54 | 1019.7 |
| 20260831215118 | 90 | 240 | 2.0 | 3.0 | 0.00 | 0.00 | 0.00 | 55 | 1019.4 |
| 20260831214615 | 90 | 260 | 3.0 | 4.0 | 0.00 | 0.00 | 0.00 | 54 | 1019.5 |
| 20260831214112 | 90 | 232 | 2.0 | 3.0 | 0.00 | 0.00 | 0.00 | 56 | 1019.6 |
| 20260831213609 | 90 | 172 | 0.0 | 0.0 | 0.00 | 0.00 | 0.00 | 55 | 1019.4 |
| 20260831213103 | 90 | 151 | 0.0 | 2.0 | 0.00 | 0.00 | 0.00 | 54 | 1019.5 |
| 20260831212559 | 90 | 152 | 0.0 | 2.0 | 0.00 | 0.00 | 0.00 | 56 | 1019.4 |
| 20260831212055 | 90 | 238 | 2.0 | 3.0 | 0.00 | 0.00 | 0.00 | 54 | 1019.6 |
| 20260831211549 | 91 | 248 | 1.0 | 2.0 | 0.00 | 0.00 | 0.00 | 55 | 1019.5 |
| 20260831211048 | 91 | 164 | 1.0 | 2.0 | 0.00 | 0.00 | 0.00 | 55 | 1019.5 |
| 20260831210543 | 90 | 298 | 1.0 | 3.0 | 0.00 | 0.00 | 0.00 | 53 | 1019.3 |
| 20260831210040 | 90 | 222 | 0.0 | 3.0 | 0.00 | 0.00 | 0.00 | 57 | 1019.4 |
| 20260831205539 | 91 | 132 | 0.0 | 2.0 | 0.00 | 0.00 | 0.00 | 54 | 1019.4 |
| 20260831205035 | 91 | 199 | 1.0 | 3.0 | 0.00 | 0.00 | 0.00 | 52 | 1019.4 |
| 20260831204530 | 91 | 230 | 4.0 | 5.0 | 0.00 | 0.00 | 0.00 | 52 | 1019.3 |
| 20260831204028 | 92 | 283 | 2.0 | 4.0 | 0.00 | 0.00 | 0.00 | 52 | 1019.4 |
| 20260831203528 | 92 | 327 | 0.0 | 3.0 | 0.00 | 0.00 | 0.00 | 51 | 1019.5 |
| 20260831203027 | 92 | 285 | 0.0 | 2.0 | 0.00 | 0.00 | 0.00 | 53 | 1019.4 |
| 20260831202521 | 92 | 109 | 0.0 | 1.0 | 0.00 | 0.00 | 0.00 | 51 | 1019.4 |
| 20260831202021 | 92 | 283 | 2.0 | 3.0 | 0.00 | 0.00 | 0.00 | 53 | 1019.4 |
| 20260831201520 | 92 | 157 | 2.0 | 2.0 | 0.00 | 0.00 | 0.00 | 52 | 1019.1 |
| 20260831201016 | 92 | 230 | 2.0 | 5.0 | 0.00 | 0.00 | 0.00 | 50 | 1019.2 |
| 20260831200511 | 92 | 235 | 3.0 | 4.0 | 0.00 | 0.00 | 0.00 | 53 | 1019.2 |
| 20260831200006 | 92 | 254 | 0.0 | 3.0 | 0.00 | 0.00 | 0.00 | 51 | 1019.6 |
| 20260831195502 | 92 | 238 | 1.0 | 5.0 | 0.00 | 0.00 | 0.00 | 50 | 1019.7 |
| 20260831195001 | 93 | 130 | 2.0 | 4.0 | 0.00 | 0.00 | 0.00 | 49 | 1019.5 |
| 20260831194457 | 92 | 205 | 1.0 | 4.0 | 0.00 | 0.00 | 0.00 | 51 | 1019.6 |
| 20260831193956 | 92 | 290 | 2.0 | 5.0 | 0.00 | 0.00 | 0.00 | 49 | 1019.6 |
| 20260831193452 | 93 | 170 | 3.0 | 4.0 | 0.00 | 0.00 | 0.00 | 48 | 1019.6 |
| 20260831192947 | 94 | 293 | 2.0 | 5.0 | 0.00 | 0.00 | 0.00 | 47 | 1019.5 |
| 20260831192442 | 94 | 134 | 0.0 | 3.0 | 0.00 | 0.00 | 0.00 | 49 | 1019.6 |
| 20260831191937 | 93 | 228 | 4.0 | 4.0 | 0.00 | 0.00 | 0.00 | 49 | 1019.5 |
| 20260831191433 | 93 | 200 | 1.0 | 4.0 | 0.00 | 0.00 | 0.00 | 51 | 1019.8 |
| 20260831190929 | 93 | 247 | 3.0 | 3.0 | 0.00 | 0.00 | 0.00 | 50 | 1019.6 |
| 20260831190424 | 91 | 153 | 1.0 | 2.0 | 0.00 | 0.00 | 0.00 | 53 | 1019.8 |
| 20260831185923 | 92 | 276 | 2.0 | 3.0 | 0.00 | 0.00 | 0.00 | 50 | 1019.9 |
| 20260831185419 | 93 | 212 | 3.0 | 4.0 | 0.00 | 0.00 | 0.00 | 48 | 1020.0 |
| 20260831184918 | 94 | 245 | 3.0 | 4.0 | 0.00 | 0.00 | 0.00 | 47 | 1019.9 |
| 20260831184413 | 93 | 196 | 2.0 | 3.0 | 0.00 | 0.00 | 0.00 | 49 | 1020.0 |
| 20260831183908 | 93 | 233 | 3.0 | 5.0 | 0.00 | 0.00 | 0.00 | 48 | 1020.1 |
| 20260831183408 | 92 | 329 | 0.0 | 3.0 | 0.00 | 0.00 | 0.00 | 51 | 1020.0 |
| 20260831182907 | 92 | 203 | 1.0 | 4.0 | 0.00 | 0.00 | 0.00 | 50 | 1020.2 |
| 20260831182403 | 92 | 176 | 0.0 | 3.0 | 0.00 | 0.00 | 0.00 | 50 | 1020.3 |
| 20260831181858 | 91 | 119 | 0.0 | 4.0 | 0.00 | 0.00 | 0.00 | 52 | 1020.2 |
| 20260831181353 | 91 | 207 | 3.0 | 4.0 | 0.00 | 0.00 | 0.00 | 52 | 1020.1 |
| 20260831180848 | 91 | 162 | 1.0 | 4.0 | 0.00 | 0.00 | 0.00 | 51 | 1020.4 |
| 20260831180342 | 91 | 154 | 2.0 | 3.0 | 0.00 | 0.00 | 0.00 | 54 | 1020.4 |
| 20260831175841 | 91 | 241 | 1.0 | 4.0 | 0.00 | 0.00 | 0.00 | 54 | 1020.3 |
| 20260831175338 | 91 | 279 | 5.0 | 5.0 | 0.00 | 0.00 | 0.00 | 53 | 1020.5 |
| 20260831174835 | 91 | 299 | 0.0 | 2.0 | 0.00 | 0.00 | 0.00 | 54 | 1020.3 |
| 20260831174330 | 91 | 223 | 5.0 | 5.0 | 0.00 | 0.00 | 0.00 | 55 | 1020.4 |
| 20260831173829 | 90 | 208 | 4.0 | 4.0 | 0.00 | 0.00 | 0.00 | 56 | 1020.5 |
| 20260831173328 | 90 | 269 | 2.0 | 3.0 | 0.00 | 0.00 | 0.00 | 55 | 1020.8 |
| 20260831172823 | 90 | 166 | 1.0 | 4.0 | 0.00 | 0.00 | 0.00 | 53 | 1020.8 |
| 20260831172319 | 91 | 273 | 4.0 | 4.0 | 0.00 | 0.00 | 0.00 | 54 | 1020.8 |
| 20260831171819 | 90 | 259 | 1.0 | 2.0 | 0.00 | 0.00 | 0.00 | 57 | 1020.7 |
| 20260831171315 | 89 | 121 | 0.0 | 3.0 | 0.00 | 0.00 | 0.00 | 57 | 1020.6 |
| 20260831170812 | 89 | 207 | 1.0 | 3.0 | 0.00 | 0.00 | 0.00 | 57 | 1020.8 |
| 20260831170308 | 89 | 357 | 2.0 | 3.0 | 0.00 | 0.00 | 0.00 | 56 | 1020.8 |
| 20260831165804 | 89 | 220 | 2.0 | 4.0 | 0.00 | 0.00 | 0.00 | 56 | 1020.8 |
| 20260831165300 | 89 | 214 | 3.0 | 5.0 | 0.00 | 0.00 | 0.00 | 57 | 1020.6 |
| 20260831164756 | 89 | 258 | 1.0 | 4.0 | 0.00 | 0.00 | 0.00 | 57 | 1020.6 |
| 20260831164252 | 89 | 216 | 1.0 | 4.0 | 0.00 | 0.00 | 0.00 | 57 | 1020.8 |
| 20260831163747 | 89 | 247 | 5.0 | 5.0 | 0.00 | 0.00 | 0.00 | 62 | 1020.9 |
| 20260831163243 | 88 | 263 | 0.0 | 3.0 | 0.00 | 0.00 | 0.00 | 61 | 1020.9 |
| 20260831162741 | 88 | 277 | 2.0 | 2.0 | 0.00 | 0.00 | 0.00 | 62 | 1021.0 |
| 20260831162236 | 87 | 134 | 0.0 | 3.0 | 0.00 | 0.00 | 0.00 | 65 | 1020.8 |
| 20260831161730 | 88 | 15 | 0.0 | 3.0 | 0.00 | 0.00 | 0.00 | 61 | 1021.3 |
| 20260831161227 | 88 | 292 | 1.0 | 3.0 | 0.00 | 0.00 | 0.00 | 60 | 1021.2 |
| 20260831160726 | 88 | 144 | 0.0 | 3.0 | 0.00 | 0.00 | 0.00 | 62 | 1020.9 |
| 20260831160222 | 87 | 224 | 3.0 | 3.0 | 0.00 | 0.00 | 0.00 | 63 | 1021.2 |
| 20260831155721 | 87 | 225 | 2.0 | 4.0 | 0.00 | 0.00 | 0.00 | 63 | 1021.3 |
| 20260831155216 | 87 | 204 | 2.0 | 4.0 | 0.00 | 0.00 | 0.00 | 61 | 1021.2 |
| 20260831154712 | 87 | 299 | 0.0 | 2.0 | 0.00 | 0.00 | 0.00 | 65 | 1021.1 |
| 20260831154209 | 87 | 262 | 0.0 | 2.0 | 0.00 | 0.00 | 0.00 | 66 | 1021.0 |
| 20260831153707 | 87 | 159 | 0.0 | 1.0 | 0.00 | 0.00 | 0.00 | 66 | 1021.0 |
| 20260831153203 | 87 | 323 | 0.0 | 0.0 | 0.00 | 0.00 | 0.00 | 65 | 1021.1 |
| 20260831152659 | 87 | 174 | 0.0 | 3.0 | 0.00 | 0.00 | 0.00 | 65 | 1021.1 |
| 20260831152155 | 87 | 224 | 1.0 | 3.0 | 0.00 | 0.00 | 0.00 | 66 | 1021.2 |
| 20260831151654 | 86 | 193 | 2.0 | 4.0 | 0.00 | 0.00 | 0.00 | 67 | 1021.2 |
| 20260831151148 | 86 | 283 | 1.0 | 2.0 | 0.00 | 0.00 | 0.00 | 68 | 1021.3 |
| 20260831150644 | 86 | 245 | 3.0 | 4.0 | 0.00 | 0.00 | 0.00 | 68 | 1021.3 |
| 20260831150139 | 85 | 247 | 0.0 | 2.0 | 0.00 | 0.00 | 0.00 | 71 | 1021.1 |
| 20260831145638 | 84 | 167 | 0.0 | 1.0 | 0.00 | 0.00 | 0.00 | 72 | 1021.0 |
| 20260831145135 | 84 | 299 | 0.0 | 3.0 | 0.00 | 0.00 | 0.00 | 71 | 1021.2 |
| 20260831144631 | 84 | 268 | 1.0 | 3.0 | 0.00 | 0.00 | 0.00 | 71 | 1021.3 |
| 20260831144126 | 84 | 143 | 0.0 | 3.0 | 0.00 | 0.00 | 0.00 | 71 | 1021.0 |
| 20260831143625 | 84 | 259 | 0.0 | 3.0 | 0.00 | 0.00 | 0.00 | 72 | 1021.1 |
| 20260831143121 | 85 | 80 | 0.0 | 3.0 | 0.00 | 0.00 | 0.00 | 70 | 1021.0 |
| 20260831142618 | 85 | 177 | 0.0 | 1.0 | 0.00 | 0.00 | 0.00 | 70 | 1021.2 |
| 20260831142113 | 85 | 211 | 1.0 | 3.0 | 0.00 | 0.00 | 0.00 | 69 | 1021.2 |
| 20260831141611 | 84 | 212 | 1.0 | 3.0 | 0.00 | 0.00 | 0.00 | 71 | 1021.1 |
| 20260831141107 | 84 | 261 | 2.0 | 3.0 | 0.00 | 0.00 | 0.00 | 72 | 1021.3 |
| 20260831140606 | 83 | 237 | 2.0 | 2.0 | 0.00 | 0.00 | 0.00 | 74 | 1021.4 |
| 20260831140101 | 82 | 282 | 3.0 | 3.0 | 0.00 | 0.00 | 0.00 | 74 | 1021.1 |
| 20260831135558 | 81 | 286 | 1.0 | 3.0 | 0.00 | 0.00 | 0.00 | 77 | 1021.3 |
| 20260831135055 | 80 | 75 | 0.0 | 4.0 | 0.00 | 0.00 | 0.00 | 78 | 1021.2 |
| 20260831134550 | 80 | 201 | 2.0 | 3.0 | 0.00 | 0.00 | 0.00 | 79 | 1021.2 |
| 20260831134045 | 80 | 101 | 2.0 | 4.0 | 0.00 | 0.00 | 0.00 | 78 | 1021.3 |
| 20260831133544 | 80 | 164 | 0.0 | 3.0 | 0.00 | 0.00 | 0.00 | 80 | 1021.1 |
| 20260831133039 | 79 | 231 | 2.0 | 3.0 | 0.00 | 0.00 | 0.00 | 81 | 1021.4 |
| 20260831132536 | 79 | 192 | 1.0 | 2.0 | 0.00 | 0.00 | 0.00 | 82 | 1021.3 |
| 20260831132034 | 78 | 166 | 0.0 | 2.0 | 0.00 | 0.00 | 0.00 | 82 | 1021.1 |
| 20260831131529 | 78 | 139 | 1.0 | 3.0 | 0.00 | 0.00 | 0.00 | 84 | 1021.2 |
| 20260831131025 | 78 | 119 | 0.0 | 2.0 | 0.00 | 0.00 | 0.00 | 84 | 1021.1 |
| 20260831130520 | 78 | 111 | 0.0 | 2.0 | 0.00 | 0.00 | 0.00 | 84 | 1021.2 |
| 20260831130016 | 78 | 78 | 0.0 | 2.0 | 0.00 | 0.00 | 0.00 | 84 | 1021.1 |
| 20260831125509 | 78 | 206 | 0.0 | 2.0 | 0.00 | 0.00 | 0.00 | 84 | 1021.2 |
| 20260831125004 | 77 | 159 | 0.0 | 1.0 | 0.00 | 0.00 | 0.00 | 85 | 1021.4 |
| 20260831124501 | 77 | 139 | 1.0 | 3.0 | 0.00 | 0.00 | 0.00 | 85 | 1021.4 |
| 20260831123956 | 78 | 168 | 1.0 | 3.0 | 0.00 | 0.00 | 0.00 | 86 | 1021.2 |
| 20260831123455 | 77 | 199 | 1.0 | 2.0 | 0.00 | 0.00 | 0.00 | 85 | 1021.3 |
| 20260831122949 | 77 | 207 | 1.0 | 2.0 | 0.00 | 0.00 | 0.00 | 86 | 1021.2 |
| 20260831122445 | 77 | 149 | 1.0 | 3.0 | 0.00 | 0.00 | 0.00 | 87 | 1021.2 |